| time (UTC) | temp F | wind direction | speed knots | gust knots | rain 1hr in | rain 24hr in | rain mn in | humidity % | barometer mb |
| 20260508023341 | 39 | 146 | 1.7 | 2.6 | 0.00 | 0.00 | 0.05 | 76 | 1014.2 |
| 20260508022723 | 40 | 210 | 0.0 | 0.0 | 0.00 | 0.00 | 0.05 | 76 | 1014.2 |
| 20260508021515 | 42 | 79 | 0.9 | 1.7 | 0.00 | 0.00 | 0.05 | 72 | 1014.2 |
| 20260508020945 | 42 | 183 | 0.9 | 1.7 | 0.00 | 0.00 | 0.05 | 68 | 1014.2 |
| 20260508020349 | 43 | 13 | 0.0 | 0.9 | 0.00 | 0.00 | 0.05 | 64 | 1013.8 |
| 20260508015738 | 42 | 202 | 0.9 | 0.9 | 0.00 | 0.00 | 0.05 | 69 | 1014.2 |
| 20260508015145 | 42 | 1 | 0.9 | 1.7 | 0.00 | 0.00 | 0.05 | 67 | 1013.8 |
| 20260508014517 | 43 | 195 | 1.7 | 1.7 | 0.00 | 0.00 | 0.05 | 59 | 1013.8 |
| 20260508012725 | 45 | 82 | 1.7 | 1.7 | 0.00 | 0.00 | 0.05 | 66 | 1013.8 |
| 20260508011528 | 43 | 152 | 0.9 | 0.9 | 0.00 | 0.00 | 0.05 | 66 | 1013.8 |
| 20260508010935 | 42 | 241 | 0.9 | 0.9 | 0.00 | 0.00 | 0.05 | 72 | 1013.5 |
| 20260508010349 | 44 | 270 | 0.9 | 0.9 | 0.00 | 0.00 | 0.05 | 68 | 1013.5 |
| 20260508005736 | 44 | 41 | 0.9 | 1.7 | 0.00 | 0.00 | 0.05 | 68 | 1013.5 |
| 20260508003908 | 44 | 216 | 0.9 | 0.9 | 0.00 | 0.00 | 0.05 | 69 | 1013.2 |
| 20260508003340 | 46 | 264 | 2.6 | 2.6 | 0.00 | 0.00 | 0.05 | 61 | 1013.2 |
| 20260508002734 | 46 | 235 | 0.9 | 0.9 | 0.00 | 0.00 | 0.05 | 61 | 1012.8 |
| 20260508002110 | 46 | 201 | 0.0 | 0.0 | 0.00 | 0.00 | 0.05 | 61 | 1013.2 |
| 20260508001532 | 47 | 86 | 1.7 | 1.7 | 0.00 | 0.00 | 0.05 | 59 | 1013.2 |
| 20260508000949 | 49 | 227 | 1.7 | 2.6 | 0.00 | 0.00 | 0.05 | 52 | 1012.8 |
| 20260508000335 | 50 | 205 | 1.7 | 1.7 | 0.00 | 0.00 | 0.05 | 51 | 1012.8 |
| 20260507235747 | 49 | 278 | 1.7 | 2.6 | 0.00 | 0.00 | 0.05 | 49 | 1012.8 |
| 20260507235119 | 50 | 200 | 2.6 | 2.6 | 0.00 | 0.00 | 0.05 | 51 | 1012.5 |
| 20260507234551 | 50 | 207 | 2.6 | 5.2 | 0.00 | 0.00 | 0.05 | 49 | 1012.5 |
| 20260507233938 | 50 | 186 | 0.9 | 1.7 | 0.00 | 0.00 | 0.05 | 50 | 1012.5 |
| 20260507233347 | 51 | 220 | 1.7 | 1.7 | 0.00 | 0.00 | 0.05 | 49 | 1012.5 |
| 20260507231535 | 52 | 187 | 2.6 | 5.2 | 0.00 | 0.00 | 0.05 | 48 | 1012.5 |
| 20260507225744 | 52 | 227 | 3.5 | 3.5 | 0.00 | 0.00 | 0.05 | 46 | 1012.5 |
| 20260507225120 | 53 | 219 | 1.7 | 2.6 | 0.00 | 0.00 | 0.05 | 46 | 1012.5 |
| 20260507224527 | 53 | 210 | 5.2 | 7.8 | 0.00 | 0.00 | 0.05 | 46 | 1012.1 |
| 20260507223918 | 54 | 232 | 0.0 | 0.9 | 0.00 | 0.00 | 0.05 | 49 | 1012.1 |
| 20260507223338 | 55 | 216 | 2.6 | 3.5 | 0.00 | 0.00 | 0.05 | 43 | 1012.8 |
| 20260507222719 | 56 | 228 | 3.5 | 6.1 | 0.00 | 0.00 | 0.05 | 42 | 1012.1 |
| 20260507221516 | 53 | 256 | 0.9 | 1.7 | 0.00 | 0.00 | 0.05 | 49 | 1012.5 |
| 20260507220312 | 55 | 203 | 1.7 | 3.5 | 0.00 | 0.00 | 0.05 | 46 | 1012.1 |
| 20260507215738 | 55 | 233 | 2.6 | 3.5 | 0.00 | 0.00 | 0.05 | 47 | 1012.1 |
| 20260507215144 | 54 | 223 | 5.2 | 6.1 | 0.00 | 0.00 | 0.05 | 44 | 1011.8 |
| 20260507213944 | 53 | 241 | 1.7 | 2.6 | 0.00 | 0.00 | 0.05 | 47 | 1012.1 |
| 20260507212737 | 54 | 157 | 5.2 | 6.1 | 0.00 | 0.00 | 0.05 | 47 | 1011.8 |
| 20260507211532 | 53 | 223 | 3.5 | 5.2 | 0.00 | 0.00 | 0.05 | 50 | 1011.8 |
| 20260507210928 | 53 | 256 | 6.1 | 7.8 | 0.00 | 0.00 | 0.05 | 47 | 1011.8 |
| 20260507210344 | 53 | 174 | 3.5 | 5.2 | 0.00 | 0.00 | 0.05 | 47 | 1011.5 |
| 20260507204547 | 55 | 219 | 6.1 | 7.0 | 0.00 | 0.00 | 0.05 | 46 | 1011.5 |
| 20260507202737 | 55 | 225 | 6.1 | 10.4 | 0.00 | 0.00 | 0.05 | 47 | 1011.5 |
| 20260507202152 | 56 | 203 | 3.5 | 7.0 | 0.00 | 0.00 | 0.05 | 43 | 1011.8 |
| 20260507201538 | 55 | 226 | 7.0 | 10.4 | 0.00 | 0.00 | 0.05 | 44 | 1011.8 |
| 20260507200938 | 56 | 282 | 5.2 | 7.8 | 0.00 | 0.00 | 0.05 | 45 | 1011.8 |
| 20260507195752 | 54 | 206 | 2.6 | 3.5 | 0.00 | 0.00 | 0.05 | 47 | 1011.8 |
| 20260507195151 | 54 | 186 | 1.7 | 2.6 | 0.00 | 0.00 | 0.05 | 50 | 1012.1 |
| 20260507194514 | 56 | 220 | 3.5 | 5.2 | 0.00 | 0.00 | 0.05 | 48 | 1012.1 |
| 20260507193951 | 55 | 272 | 3.5 | 7.0 | 0.00 | 0.00 | 0.05 | 50 | 1012.1 |
| 20260507192732 | 55 | 258 | 6.1 | 9.6 | 0.00 | 0.00 | 0.05 | 51 | 1012.1 |
| 20260507192146 | 55 | 254 | 6.1 | 7.8 | 0.00 | 0.00 | 0.05 | 50 | 1012.1 |
| 20260507191535 | 55 | 211 | 4.3 | 6.1 | 0.00 | 0.00 | 0.05 | 51 | 1012.1 |
| 20260507190936 | 53 | 90 | 3.5 | 3.5 | 0.00 | 0.00 | 0.05 | 52 | 1012.1 |
| 20260507185724 | 53 | 217 | 2.6 | 3.5 | 0.00 | 0.00 | 0.05 | 56 | 1012.1 |
| 20260507185150 | 53 | 244 | 1.7 | 1.7 | 0.00 | 0.00 | 0.05 | 56 | 1012.1 |
| 20260507184549 | 53 | 285 | 1.7 | 2.6 | 0.00 | 0.00 | 0.05 | 57 | 1012.1 |
| 20260507183951 | 53 | 248 | 1.7 | 1.7 | 0.00 | 0.00 | 0.05 | 55 | 1012.1 |
| 20260507183308 | 53 | 245 | 2.6 | 3.5 | 0.00 | 0.00 | 0.05 | 57 | 1012.1 |
| 20260507182714 | 53 | 228 | 6.1 | 7.0 | 0.00 | 0.00 | 0.05 | 57 | 1012.5 |
| 20260507182150 | 53 | 233 | 2.6 | 3.5 | 0.00 | 0.00 | 0.05 | 57 | 1012.1 |
| 20260507181510 | 52 | 261 | 1.7 | 3.5 | 0.00 | 0.00 | 0.05 | 58 | 1012.1 |
| 20260507180927 | 53 | 290 | 6.1 | 7.8 | 0.00 | 0.00 | 0.05 | 56 | 1012.1 |
| 20260507180324 | 55 | 215 | 5.2 | 7.0 | 0.00 | 0.00 | 0.05 | 57 | 1012.1 |
| 20260507174520 | 54 | 260 | 5.2 | 7.8 | 0.00 | 0.00 | 0.05 | 54 | 1012.1 |
| 20260507173945 | 54 | 275 | 4.3 | 7.0 | 0.00 | 0.00 | 0.05 | 57 | 1012.1 |
| 20260507172732 | 53 | 251 | 3.5 | 5.2 | 0.00 | 0.00 | 0.05 | 57 | 1012.5 |
| 20260507172129 | 52 | 206 | 5.2 | 7.0 | 0.00 | 0.00 | 0.05 | 60 | 1012.8 |
| 20260507170911 | 51 | 259 | 1.7 | 2.6 | 0.00 | 0.00 | 0.05 | 61 | 1012.8 |
| 20260507170321 | 52 | 254 | 4.3 | 5.2 | 0.00 | 0.00 | 0.05 | 62 | 1012.8 |
| 20260507165750 | 53 | 357 | 2.6 | 3.5 | 0.00 | 0.00 | 0.05 | 63 | 1013.2 |
| 20260507165135 | 53 | 280 | 2.6 | 3.5 | 0.00 | 0.00 | 0.05 | 68 | 1012.8 |
| 20260507163923 | 51 | 301 | 3.5 | 5.2 | 0.00 | 0.00 | 0.05 | 65 | 1013.2 |
| 20260507162722 | 51 | 280 | 5.2 | 6.1 | 0.00 | 0.00 | 0.05 | 66 | 1013.2 |
| 20260507162152 | 51 | 237 | 1.7 | 2.6 | 0.00 | 0.00 | 0.05 | 70 | 1013.2 |
| 20260507161555 | 52 | 296 | 3.5 | 5.2 | 0.00 | 0.00 | 0.05 | 68 | 1013.2 |
| 20260507160923 | 51 | 241 | 3.5 | 5.2 | 0.00 | 0.00 | 0.05 | 73 | 1013.2 |
| 20260507160346 | 50 | 222 | 0.9 | 1.7 | 0.00 | 0.00 | 0.05 | 72 | 1013.5 |
| 20260507155731 | 51 | 237 | 2.6 | 2.6 | 0.00 | 0.00 | 0.05 | 70 | 1013.5 |
| 20260507155123 | 51 | 182 | 1.7 | 2.6 | 0.00 | 0.00 | 0.05 | 73 | 1013.2 |
| 20260507154519 | 50 | 268 | 3.5 | 6.1 | 0.00 | 0.00 | 0.05 | 73 | 1013.5 |
| 20260507153911 | 49 | 244 | 4.3 | 6.1 | 0.00 | 0.00 | 0.05 | 76 | 1013.5 |
| 20260507153315 | 49 | 259 | 1.7 | 2.6 | 0.00 | 0.00 | 0.05 | 75 | 1013.5 |
| 20260507152750 | 49 | 253 | 2.6 | 3.5 | 0.00 | 0.00 | 0.05 | 76 | 1013.5 |
| 20260507151534 | 48 | 299 | 1.7 | 1.7 | 0.00 | 0.00 | 0.05 | 81 | 1013.5 |
| 20260507150347 | 48 | 239 | 1.7 | 1.7 | 0.00 | 0.00 | 0.05 | 78 | 1013.8 |
| 20260507145715 | 48 | 203 | 0.9 | 0.9 | 0.00 | 0.00 | 0.05 | 77 | 1013.8 |
| 20260507145111 | 47 | 270 | 0.9 | 0.9 | 0.00 | 0.00 | 0.05 | 80 | 1013.8 |
| 20260507144515 | 47 | 259 | 0.9 | 1.7 | 0.00 | 0.00 | 0.05 | 80 | 1013.8 |
| 20260507143939 | 46 | 237 | 0.9 | 0.9 | 0.00 | 0.00 | 0.05 | 81 | 1013.8 |
| 20260507143320 | 46 | 120 | 0.9 | 1.7 | 0.00 | 0.00 | 0.05 | 78 | 1013.8 |
| 20260507142123 | 47 | 262 | 1.7 | 1.7 | 0.00 | 0.00 | 0.05 | 80 | 1014.5 |
| 20260507141517 | 47 | 251 | 1.7 | 1.7 | 0.00 | 0.00 | 0.05 | 81 | 1014.2 |
| 20260507140926 | 46 | 246 | 2.6 | 3.5 | 0.00 | 0.00 | 0.05 | 83 | 1014.2 |
| 20260507140342 | 47 | 208 | 0.9 | 0.9 | 0.00 | 0.00 | 0.05 | 81 | 1014.2 |
| 20260507135143 | 45 | 228 | 0.0 | 0.0 | 0.00 | 0.00 | 0.05 | 85 | 1014.2 |
| 20260507134519 | 45 | 253 | 3.5 | 5.2 | 0.00 | 0.00 | 0.05 | 88 | 1014.2 |
| 20260507133319 | 44 | 229 | 1.7 | 2.6 | 0.00 | 0.00 | 0.05 | 89 | 1014.5 |
| 20260507132742 | 44 | 228 | 0.9 | 1.7 | 0.00 | 0.00 | 0.05 | 89 | 1014.5 |
| 20260507132122 | 44 | 239 | 1.7 | 1.7 | 0.00 | 0.00 | 0.05 | 89 | 1014.5 |
| 20260507130911 | 44 | 213 | 0.0 | 0.0 | 0.00 | 0.00 | 0.05 | 89 | 1014.9 |
| 20260507130311 | 44 | 228 | 1.7 | 2.6 | 0.00 | 0.00 | 0.05 | 91 | 1014.2 |
| 20260507124550 | 44 | 255 | 1.7 | 1.7 | 0.00 | 0.00 | 0.05 | 93 | 1014.9 |
| 20260507123943 | 44 | 216 | 0.9 | 1.7 | 0.00 | 0.00 | 0.05 | 93 | 1014.9 |
| 20260507123343 | 43 | 226 | 0.0 | 0.9 | 0.00 | 0.00 | 0.05 | 93 | 1014.9 |
| 20260507122748 | 43 | 241 | 0.9 | 0.9 | 0.00 | 0.00 | 0.05 | 94 | 1014.5 |
| 20260507122127 | 43 | 249 | 1.7 | 1.7 | 0.00 | 0.00 | 0.05 | 94 | 1014.9 |
| 20260507120340 | 43 | 283 | 1.7 | 1.7 | 0.00 | 0.00 | 0.05 | 95 | 1014.5 |
| 20260507115712 | 43 | 285 | 0.9 | 1.7 | 0.00 | 0.00 | 0.05 | 96 | 1014.5 |
| 20260507115146 | 43 | 234 | 0.0 | 0.0 | 0.00 | 0.00 | 0.05 | 96 | 1014.5 |
| 20260507114527 | 43 | 243 | 0.0 | 0.0 | 0.00 | 0.00 | 0.05 | 96 | 1014.5 |
| 20260507113916 | 43 | 230 | 0.0 | 0.0 | 0.00 | 0.00 | 0.05 | 95 | 1014.2 |
| 20260507113326 | 43 | 233 | 0.0 | 0.0 | 0.00 | 0.00 | 0.05 | 95 | 1013.8 |
| 20260507112752 | 43 | 217 | 1.7 | 1.7 | 0.00 | 0.00 | 0.05 | 95 | 1014.2 |
| 20260507111513 | 43 | 249 | 1.7 | 1.7 | 0.00 | 0.00 | 0.05 | 96 | 1013.8 |
| 20260507110940 | 43 | 234 | 0.9 | 0.9 | 0.00 | 0.00 | 0.05 | 96 | 1013.8 |
| 20260507110320 | 43 | 239 | 0.0 | 0.0 | 0.00 | 0.00 | 0.05 | 97 | 1013.8 |
| 20260507105717 | 43 | 221 | 1.7 | 1.7 | 0.00 | 0.00 | 0.05 | 97 | 1013.8 |
| 20260507105143 | 43 | 235 | 0.9 | 0.9 | 0.00 | 0.00 | 0.05 | 97 | 1013.8 |
| 20260507104546 | 43 | 192 | 0.9 | 0.9 | 0.00 | 0.00 | 0.04 | 98 | 1013.8 |
| 20260507103320 | 44 | 227 | 0.0 | 0.0 | 0.00 | 0.00 | 0.04 | 98 | 1013.8 |
| 20260507102729 | 44 | 231 | 0.0 | 0.0 | 0.00 | 0.00 | 0.04 | 98 | 1013.8 |
| 20260507101525 | 44 | 242 | 0.9 | 0.9 | 0.00 | 0.00 | 0.04 | 99 | 1013.5 |
| 20260507100912 | 44 | 235 | 0.9 | 1.7 | 0.00 | 0.00 | 0.04 | 99 | 1013.5 |
| 20260507100332 | 44 | 233 | 2.6 | 2.6 | 0.00 | 0.00 | 0.04 | 99 | 1013.5 |
| 20260507095740 | 44 | 222 | 0.9 | 0.9 | 0.00 | 0.00 | 0.04 | 99 | 1013.5 |
| 20260507095110 | 44 | 208 | 0.0 | 0.0 | 0.00 | 0.00 | 0.04 | 99 | 1013.2 |
| 20260507093930 | 44 | 214 | 0.9 | 1.7 | 0.00 | 0.00 | 0.04 | 99 | 1013.2 |
| 20260507093344 | 44 | 211 | 0.0 | 0.0 | 0.00 | 0.00 | 0.04 | 99 | 1013.2 |
| 20260507092744 | 44 | 185 | 0.9 | 1.7 | 0.00 | 0.00 | 0.04 | 99 | 1013.2 |
| 20260507092130 | 44 | 198 | 0.0 | 0.9 | 0.00 | 0.00 | 0.04 | 99 | 1013.2 |
| 20260507091510 | 44 | 210 | 0.0 | 0.0 | 0.00 | 0.00 | 0.04 | 99 | 1013.2 |
| 20260507090939 | 44 | 216 | 0.0 | 0.0 | 0.00 | 0.00 | 0.04 | 99 | 1013.5 |
| 20260507090318 | 44 | 198 | 0.0 | 0.9 | 0.00 | 0.00 | 0.03 | 99 | 1013.5 |
| 20260507085715 | 44 | 206 | 0.0 | 0.0 | 0.00 | 0.00 | 0.03 | 99 | 1013.5 |
| 20260507085109 | 44 | 205 | 0.0 | 0.9 | 0.00 | 0.00 | 0.03 | 99 | 1013.2 |
| 20260507084541 | 44 | 220 | 0.0 | 0.0 | 0.00 | 0.00 | 0.03 | 99 | 1013.2 |
| 20260507083925 | 44 | 220 | 0.0 | 0.0 | 0.00 | 0.00 | 0.03 | 99 | 1013.5 |
| 20260507083327 | 44 | 220 | 0.0 | 0.0 | 0.00 | 0.00 | 0.03 | 99 | 1013.2 |
| 20260507082121 | 44 | 220 | 0.0 | 0.0 | 0.00 | 0.00 | 0.03 | 99 | 1013.5 |
| 20260507081530 | 44 | 230 | 0.0 | 0.0 | 0.00 | 0.00 | 0.03 | 99 | 1013.8 |
| 20260507080917 | 44 | 230 | 0.0 | 0.0 | 0.00 | 0.00 | 0.03 | 99 | 1013.5 |
| 20260507080337 | 44 | 230 | 0.0 | 0.0 | 0.00 | 0.00 | 0.03 | 99 | 1013.2 |
| 20260507075716 | 44 | 202 | 0.9 | 0.9 | 0.00 | 0.00 | 0.03 | 98 | 1013.5 |
| 20260507075135 | 44 | 219 | 0.0 | 0.0 | 0.00 | 0.00 | 0.03 | 99 | 1013.5 |
| 20260507074541 | 44 | 231 | 0.0 | 0.0 | 0.00 | 0.00 | 0.03 | 98 | 1013.5 |
| 20260507073952 | 44 | 208 | 0.9 | 0.9 | 0.00 | 0.00 | 0.03 | 98 | 1013.5 |
| 20260507073328 | 44 | 211 | 0.0 | 0.0 | 0.00 | 0.00 | 0.03 | 98 | 1013.5 |
| 20260507072748 | 44 | 211 | 0.0 | 0.0 | 0.00 | 0.00 | 0.03 | 98 | 1013.5 |
| 20260507072116 | 44 | 211 | 0.0 | 0.0 | 0.00 | 0.00 | 0.03 | 98 | 1013.5 |
| 20260507071537 | 44 | 211 | 0.0 | 0.0 | 0.00 | 0.00 | 0.03 | 98 | 1013.5 |
| 20260507070310 | 44 | 211 | 0.0 | 0.0 | 0.00 | 0.00 | 0.03 | 98 | 1013.5 |
| 20260507065753 | 44 | 211 | 0.0 | 0.0 | 0.00 | 0.00 | 0.03 | 98 | 1013.5 |
| 20260507064514 | 44 | 211 | 0.0 | 0.0 | 0.00 | 0.00 | 0.03 | 97 | 1013.5 |
| 20260507063913 | 44 | 212 | 0.0 | 0.0 | 0.00 | 0.00 | 0.03 | 97 | 1013.5 |
| 20260507063347 | 44 | 211 | 0.0 | 0.0 | 0.00 | 0.00 | 0.03 | 97 | 1013.5 |
| 20260507062716 | 44 | 209 | 0.0 | 0.0 | 0.00 | 0.00 | 0.03 | 97 | 1013.5 |
| 20260507062130 | 44 | 209 | 0.0 | 0.0 | 0.00 | 0.00 | 0.03 | 96 | 1013.8 |
| 20260507061517 | 44 | 207 | 0.0 | 0.0 | 0.00 | 0.00 | 0.03 | 96 | 1013.8 |
| 20260507060928 | 44 | 226 | 0.0 | 0.0 | 0.00 | 0.00 | 0.02 | 96 | 1013.8 |
| 20260507060317 | 44 | 226 | 0.0 | 0.0 | 0.00 | 0.00 | 0.02 | 95 | 1013.8 |
| 20260507055734 | 44 | 225 | 0.0 | 0.0 | 0.00 | 0.00 | 0.02 | 95 | 1014.2 |
| 20260507055110 | 44 | 286 | 0.0 | 0.9 | 0.00 | 0.00 | 0.02 | 96 | 1014.5 |
| 20260507053926 | 45 | 235 | 0.0 | 0.0 | 0.00 | 0.00 | 0.02 | 96 | 1014.5 |
| 20260507052712 | 45 | 181 | 0.0 | 0.0 | 0.00 | 0.00 | 0.02 | 95 | 1014.2 |
| 20260507052147 | 45 | 152 | 1.7 | 1.7 | 0.00 | 0.00 | 0.02 | 95 | 1014.5 |
| 20260507051524 | 45 | 196 | 0.0 | 0.0 | 0.00 | 0.00 | 0.02 | 95 | 1014.5 |
| 20260507050911 | 45 | 188 | 0.9 | 0.9 | 0.00 | 0.00 | 0.02 | 96 | 1013.8 |
| 20260507050342 | 46 | 306 | 0.9 | 0.9 | 0.00 | 0.00 | 0.01 | 95 | 1014.2 |
| 20260507045750 | 46 | 230 | 0.0 | 0.0 | 0.00 | 0.00 | 0.01 | 95 | 1014.2 |
| 20260507045142 | 46 | 185 | 0.0 | 0.9 | 0.00 | 0.00 | 0.01 | 95 | 1014.2 |
| 20260507044539 | 46 | 287 | 1.7 | 2.6 | 0.00 | 0.00 | 0.01 | 96 | 1014.2 |
| 20260507043954 | 47 | 134 | 0.9 | 1.7 | 0.00 | 0.00 | 0.01 | 96 | 1014.2 |
| 20260507041541 | 47 | 43 | 0.0 | 0.0 | 0.00 | 0.00 | 0.01 | 97 | 1013.8 |
| 20260507040932 | 48 | 125 | 0.9 | 1.7 | 0.00 | 0.00 | 0.00 | 97 | 1013.8 |
| 20260507040332 | 48 | 327 | 0.0 | 0.0 | 0.00 | 0.00 | 0.00 | 97 | 1013.8 |
| 20260507035713 | 48 | 181 | 0.9 | 0.9 | 0.00 | 0.00 | 0.82 | 97 | 1013.5 |
| 20260507035145 | 48 | 227 | 0.9 | 0.9 | 0.00 | 0.00 | 0.82 | 97 | 1014.2 |
| 20260507034518 | 48 | 270 | 0.9 | 1.7 | 0.00 | 0.00 | 0.82 | 97 | 1013.8 |
| 20260507033911 | 48 | 280 | 2.6 | 2.6 | 0.00 | 0.00 | 0.82 | 97 | 1013.5 |
| 20260507033343 | 48 | 223 | 1.7 | 1.7 | 0.00 | 0.00 | 0.82 | 97 | 1013.2 |
| 20260507032121 | 49 | 214 | 0.9 | 1.7 | 0.00 | 0.00 | 0.81 | 97 | 1014.5 |
| 20260507030950 | 49 | 271 | 0.9 | 0.9 | 0.00 | 0.00 | 0.81 | 97 | 1013.8 |
| 20260507030351 | 49 | 230 | 0.0 | 0.9 | 0.00 | 0.00 | 0.81 | 96 | 1013.8 |
| 20260507025726 | 49 | 221 | 1.7 | 1.7 | 0.00 | 0.00 | 0.81 | 96 | 1013.5 |
| 20260507024540 | 50 | 230 | 0.0 | 0.9 | 0.00 | 0.00 | 0.81 | 96 | 1013.8 |
| 20260507023911 | 49 | 229 | 0.0 | 0.0 | 0.00 | 0.00 | 0.81 | 97 | 1013.5 |